sat.trackr.live / text

‹ back to catalog

STARLINK-34008

NORAD 64037 · 2025-102R

PAYLOAD ACTIVE UNKNOWN

§ Identity

Operator
Country
US
Launch date
2025-05-16
Launch site
AFWTR
Launch vehicle
Mass (kg)
RCS (m²)

Purposes: comms

External: N2YO · Heavens-Above · Gunter

§ Orbital elements

Epoch: 2026-09-20T14:25:59.609568Z

Period
94.14 min
Inclination
70.0012°
Eccentricity
0.0003621
Mean motion
15.29586838 rev/d
Perigee alt
474.6 km
Apogee alt
479.5 km
Semi-major
6,855.2 km
B*
3.8532e-4
RAAN
340.7895°
Arg perigee
270.6487°
Mean anomaly
89.4273°
Rev number
7,521

§ Raw data

STARLINK-340081 64037U 25102R   26263.60138437  .00010968  00000+0  38532-3 0  99982 64037  70.0012 340.7895 0003621 270.6487  89.4273 15.29586838 75217

JSON: /api/v1/satellites/64037 · /tle

For live sub-satellite position, see the globe view (requires WebGL).

§ Visibility from observer

Set your observer location to see the next 7 days of passes ≥ 10°. The values pass through the URL so the page stays shareable.

No JS? Fill the form by hand. The geolocation button needs JavaScript.